Flag for Switzerland Weather past 2 weeks in Altdorf, Uri, Switzerland

Now
39 °F

Chilly.


Feels Like: 39 °F
Forecast: 29 / 40 °F
Wind: 2 mph from Northeast

Location: Altdorf

Current Time: Mar 3, 2015 at 6:30:34 AM

Latest Report: Mar 3, 2015 at 5:00 AM


Visibility: N/A

Pressure: 30.29 "Hg

Humidity: 78%

Dew point: 33 °F

Location of AltdorfLocation

Historic Weather in Altdorf — Graph

°F

Altdorf temperature yesterday

Maximum temperature yesterday: 47 °F (at 3:00 PM)
Minimum temperature yesterday: 42 °F (at 8:00 PM)
Average temperature yesterday: 45 °F

Past Weeks' High & Low Weather Summary

 TemperatureHumidityPressure
High52 °F (Feb 21, 12:00 PM)96% (Feb 22, 3:00 AM)30.70 "Hg (Feb 22, 3:00 AM)
Low25 °F (Feb 20, 6:00 AM)18% (Feb 20, 8:00 PM)29.47 "Hg (Feb 21, 12:00 PM)
Average38 °F77%30.08 "Hg
* Reported Feb 16 5:00 AM — Mar 3 5:00 AM, Altdorf, Weather by CustomWeather, © 2015

Note: Actual official high and low records may vary slightly from our data, if they occured in-between our weather recording intervals... More about our weather records

Advertising

Altdorf weather history for previous 24 hours

 ConditionsComfort  
Time TempWeatherWind HumidityBarometerVisibility
5:00 AM
Tue, Mar 3
39 °FChilly.2 mph78%30.29 "HgN/A
4:00 AM40 °FOvercast.3 mph77%30.27 "Hg9 mi
3:00 AM40 °FQuite cool.8 mph74%30.25 "HgN/A
2:00 AM41 °FQuite cool.8 mph71%30.25 "HgN/A
1:00 AM42 °FDrizzle. Overcast.14 mph62%30.24 "Hg7 mi
12:00 AM41 °FQuite cool.22 mph68%30.23 "HgN/A
11:00 PM
Mon, Mar 2
43 °FQuite cool.22 mph63%30.19 "HgN/A
9:00 PM47 °FCool.21 mph52%30.07 "HgN/A
8:00 PM42 °FQuite cool.7 mph83%30.06 "HgN/A
7:00 PM47 °FLight rain. Overcast.12 mph53%30.02 "Hg9 mi
6:00 PM42 °FQuite cool.3 mph81%30.01 "HgN/A
5:00 PM45 °FQuite cool.13 mph65%30.00 "HgN/A
4:00 PM46 °FOvercast.15 mph64%29.93 "Hg9 mi
3:00 PM47 °FCool.13 mph60%29.91 "HgN/A
2:00 PM44 °FQuite cool.22 mph77%29.92 "HgN/A
1:00 PM47 °FLight rain. Low clouds.13 mph70%29.88 "Hg12 mi
12:00 PM46 °FCool.5 mph91%29.86 "HgN/A
11:00 AM45 °FQuite cool.3 mph90%29.87 "HgN/A
10:00 AM44 °FRain. Low clouds.7 mph90%29.89 "Hg9 mi
9:00 AM44 °FQuite cool.7 mph93%29.89 "HgN/A
8:00 AM44 °FQuite cool.2 mph95%29.85 "HgN/A
7:00 AM44 °FRain. Overcast.1 mph95%29.83 "Hg6 mi
6:00 AM44 °FQuite cool.1 mph95%29.83 "HgN/A
Weather by CustomWeather, © 2015

See weather overviewHow to use our weather pages